Weather History for Defiance, OH

Change the Weather History Date:

Sunday, December 9, 2012

  Actual Average Record
Temperature  
Mean Temperature 38 °F -  
Max Temperature 41 °F 39 °F 65 °F (1966)
Min Temperature 35 °F 23 °F -4 °F (1964)
Degree Days  
Heating Degree Days 27    
Moisture  
Dew Point 36 °F    
Average Humidity 91    
Maximum Humidity 100    
Minimum Humidity 79    
Precipitation  
Precipitation 0.18 in - - ()
Sea Level Pressure  
Sea Level Pressure 29.89 in    
Wind  
Wind Speed 8 mph (East)    
Max Wind Speed 15 mph    
Max Gust Speed 22 mph    
Visibility 5 miles    
Events Fog , Rain    
Averages and records for this station are not official NWS values.
T = Trace of Precipitation, MM = Missing Value Source: NWS Daily Summary

Daily Weather History Graph

Daily Weather History Graph

Search for Another Location

Airport:

Trip Planner

Search our weather history database for the weather conditions in past years. The results will help you decide how hot, cold, wet, or windy it might be!

Date:

Astronomy

Dec. 09, 2012 Rise Set
Actual Time 7:52 AM EST 5:08 PM EST
Civil Twilight 7:21 AM EST 5:39 PM EST
Nautical Twilight 6:46 AM EST 6:14 PM EST
Astronomical Twilight 6:12 AM EST 6:47 PM EST
Moon 3:22 AM EST (12/9) 2:16 PM EST (12/9)
Length of Visible Light 10h 18m
Length of Day
9h 16m
Waning Crescent, 19% of the Moon is Illuminated
Dec 9
Waning Crescent
Dec 13
New
Dec 20
First Quarter
Dec 28
Full
Jan 4
Last Quarter

Hourly Weather History & Observations

Time (EST) Temp. Windchill Dew Point Humidity Pressure Visibility Wind Dir Wind Speed Gust Speed Precip Events Conditions
12:53 AM 36.0 °F 30.3 °F 32.0 °F 86% 30.15 in 10.0 mi NE 6.9 mph - N/A   Overcast
1:53 AM 36.0 °F 29.6 °F 32.0 °F 86% 30.16 in 10.0 mi ENE 8.1 mph - N/A   Overcast
2:53 AM 36.0 °F 29.6 °F 32.0 °F 86% 30.16 in 10.0 mi ENE 8.1 mph - N/A   Overcast
3:53 AM 36.0 °F 29.0 °F 32.0 °F 86% 30.14 in 10.0 mi East 9.2 mph - N/A   Overcast
4:07 AM 35.6 °F 28.6 °F 32.0 °F 87% 30.11 in 10.0 mi East 9.2 mph - N/A   Overcast
4:53 AM 37.0 °F 29.8 °F 33.1 °F 86% 30.14 in 10.0 mi East 10.4 mph - N/A   Overcast
5:53 AM 37.9 °F 30.5 °F 34.0 °F 86% 30.12 in 10.0 mi East 11.5 mph - N/A   Overcast
6:53 AM 37.9 °F 30.9 °F 34.0 °F 86% 30.12 in 10.0 mi East 10.4 mph - N/A   Overcast
7:18 AM 37.4 °F 31.4 °F 33.8 °F 87% 30.10 in 10.0 mi East 8.1 mph - N/A   Overcast
7:53 AM 37.9 °F 32.1 °F 34.0 °F 86% 30.10 in 10.0 mi East 8.1 mph - N/A   Overcast
8:53 AM 39.0 °F 31.8 °F 33.1 °F 79% 30.07 in 10.0 mi East 11.5 mph - N/A   Overcast
9:53 AM 37.9 °F 29.2 °F 33.1 °F 83% 30.05 in 7.0 mi East 15.0 mph 20.7 mph 0.01 in Rain Light Rain
10:28 AM 37.4 °F 29.3 °F 33.8 °F 87% 30.02 in 4.0 mi East 12.7 mph 21.9 mph 0.01 in Rain Light Rain
10:41 AM 37.4 °F 28.9 °F 33.8 °F 87% 30.01 in 3.0 mi East 13.8 mph - 0.01 in Rain Light Rain
10:53 AM 37.0 °F 28.5 °F 34.0 °F 89% 30.03 in 4.0 mi East 13.8 mph - 0.01 in Rain Light Rain
10:56 AM 37.4 °F 29.3 °F 33.8 °F 87% 30.00 in 5.0 mi East 12.7 mph - 0.00 in Rain Light Rain
11:28 AM 37.4 °F 30.3 °F 33.8 °F 87% 29.98 in 6.0 mi East 10.4 mph - 0.01 in Rain Light Rain
11:53 AM 37.0 °F 28.5 °F 34.0 °F 89% 29.98 in 5.0 mi East 13.8 mph - 0.02 in Rain Light Rain
12:10 PM 37.4 °F 31.4 °F 35.6 °F 93% 29.96 in 5.0 mi East 8.1 mph - 0.01 in Rain Light Rain
12:19 PM 37.4 °F 30.8 °F 35.6 °F 93% 29.96 in 4.0 mi East 9.2 mph - 0.02 in Rain Light Rain
12:35 PM 37.4 °F 29.8 °F 35.6 °F 93% 29.93 in 4.0 mi East 11.5 mph - 0.04 in Rain Light Rain
12:42 PM 37.4 °F 29.3 °F 35.6 °F 93% 29.92 in 4.0 mi East 12.7 mph - 0.06 in Rain Rain
12:51 PM 37.4 °F 30.3 °F 35.6 °F 93% 29.91 in 5.0 mi East 10.4 mph - 0.06 in Rain Light Rain
12:53 PM 37.0 °F 29.3 °F 35.1 °F 93% 29.93 in 5.0 mi East 11.5 mph - 0.06 in Rain Light Rain
1:10 PM 37.4 °F 29.3 °F 35.6 °F 93% 29.89 in 9.0 mi East 12.7 mph - 0.00 in   Overcast
1:53 PM 37.9 °F 31.5 °F 35.1 °F 89% 29.89 in 6.0 mi East 9.2 mph - 0.01 in Rain Light Rain
2:53 PM 39.0 °F 32.8 °F 36.0 °F 89% 29.85 in 7.0 mi ESE 9.2 mph - 0.04 in   Overcast
3:33 PM 39.2 °F 35.0 °F 37.4 °F 93% 29.82 in 4.0 mi ENE 5.8 mph - 0.01 in Rain Light Rain
3:53 PM 39.0 °F 32.8 °F 37.0 °F 93% 29.83 in 4.0 mi East 9.2 mph - 0.01 in   Overcast
4:05 PM 39.2 °F 33.6 °F 37.4 °F 93% 29.80 in 2.0 mi East 8.1 mph - N/A   Overcast
4:12 PM 39.2 °F 35.0 °F 37.4 °F 93% 29.80 in 1.2 mi East 5.8 mph - N/A   Overcast
4:32 PM 39.2 °F 34.2 °F 37.4 °F 93% 29.79 in 1.0 mi East 6.9 mph - N/A   Overcast
4:53 PM 39.0 °F 34.8 °F 37.9 °F 96% 29.81 in 1.2 mi East 5.8 mph - N/A   Overcast
5:53 PM 39.9 °F 35.8 °F 39.0 °F 97% 29.78 in 1.0 mi East 5.8 mph - N/A   Mist
6:33 PM 39.2 °F 35.9 °F 39.2 °F 100% 29.76 in 0.8 mi East 4.6 mph - N/A   Mist
6:53 PM 39.9 °F 37.8 °F 39.0 °F 97% 29.77 in 0.8 mi NE 3.5 mph - N/A   Mist
7:53 PM 39.9 °F - 39.9 °F 100% 29.75 in 0.5 mi Calm Calm - N/A Fog Fog
8:53 PM 41.0 °F - 39.9 °F 96% 29.73 in 0.8 mi Calm Calm - N/A   Mist
9:30 PM 41.0 °F - 41.0 °F 100% 29.71 in 1.0 mi Calm Calm - 0.00 in Rain Light Rain
9:50 PM 41.0 °F 39.0 °F 39.2 °F 93% 29.69 in 0.8 mi North 3.5 mph - 0.00 in   Mist
9:53 PM 41.0 °F 39.0 °F 39.9 °F 96% 29.70 in 0.5 mi NNW 3.5 mph - 0.00 in Fog Fog
10:28 PM 41.0 °F - 39.2 °F 93% 29.68 in 1.0 mi Calm Calm - 0.00 in Rain Light Rain
10:42 PM 41.0 °F - 41.0 °F 100% 29.67 in 1.8 mi Calm Calm - 0.01 in Rain Light Rain
10:49 PM 41.0 °F - 41.0 °F 100% 29.67 in 1.8 mi Calm Calm - 0.01 in Rain Light Rain
10:53 PM 41.0 °F - 39.9 °F 96% 29.69 in 1.8 mi Calm Calm - 0.01 in Rain Light Rain
11:00 PM 41.0 °F 39.0 °F 39.2 °F 93% 29.66 in 2.0 mi ESE 3.5 mph - 0.00 in Rain Light Rain
11:19 PM 41.0 °F - 39.2 °F 93% 29.66 in 2.5 mi Calm Calm - 0.00 in Rain Light Rain
11:26 PM 41.0 °F - 39.2 °F 93% 29.65 in 2.5 mi Calm Calm - 0.01 in Rain Light Rain
11:53 PM 41.0 °F - 39.0 °F 93% 29.68 in 2.0 mi Calm Calm - 0.01 in   Overcast